| time (UTC) | temp F | wind direction | speed knots | gust knots | rain 1hr in | rain 24hr in | rain mn in | humidity % | barometer mb |
| 20260505223030 | 78 | 9 | 3.5 | 7.8 | 0.00 | 0.00 | 0.00 | 42 | 1014.4 |
| 20260505220036 | 78 | 11 | 4.3 | 8.7 | 0.00 | 0.00 | 0.00 | 43 | 1014.5 |
| 20260505214532 | 78 | 350 | 3.5 | 7.8 | 0.00 | 0.00 | 0.00 | 43 | 1014.6 |
| 20260505213032 | 77 | 13 | 3.5 | 7.8 | 0.00 | 0.00 | 0.00 | 43 | 1014.7 |
| 20260505211535 | 77 | 39 | 3.5 | 7.8 | 0.00 | 0.00 | 0.00 | 44 | 1014.8 |
| 20260505210036 | 77 | 45 | 3.5 | 8.7 | 0.00 | 0.00 | 0.00 | 45 | 1015.0 |
| 20260505204532 | 77 | 24 | 3.5 | 7.8 | 0.00 | 0.00 | 0.00 | 44 | 1015.1 |
| 20260505203039 | 78 | 21 | 2.6 | 8.7 | 0.00 | 0.00 | 0.00 | 45 | 1015.2 |
| 20260505201534 | 78 | 11 | 3.5 | 9.6 | 0.00 | 0.00 | 0.00 | 45 | 1015.2 |
| 20260505200038 | 78 | 5 | 4.3 | 8.7 | 0.00 | 0.00 | 0.00 | 46 | 1015.3 |
| 20260505194609 | 77 | 34 | 2.6 | 8.7 | 0.00 | 0.00 | 0.00 | 46 | 1015.3 |
| 20260505193029 | 77 | 11 | 2.6 | 8.7 | 0.00 | 0.00 | 0.00 | 47 | 1015.4 |
| 20260505190029 | 75 | 48 | 2.6 | 7.0 | 0.00 | 0.00 | 0.00 | 50 | 1015.6 |
| 20260505184529 | 74 | 17 | 3.5 | 7.8 | 0.00 | 0.00 | 0.00 | 50 | 1015.7 |
| 20260505183035 | 73 | 28 | 2.6 | 7.0 | 0.00 | 0.00 | 0.00 | 54 | 1015.8 |
| 20260505181531 | 70 | 33 | 3.5 | 7.8 | 0.00 | 0.00 | 0.00 | 57 | 1015.7 |
| 20260505180040 | 69 | 33 | 3.5 | 8.7 | 0.00 | 0.00 | 0.00 | 58 | 1015.7 |
| 20260505180032 | 69 | 58 | 3.5 | 8.7 | 0.00 | 0.00 | 0.00 | 58 | 1015.7 |
| 20260505173035 | 68 | 22 | 2.6 | 7.0 | 0.00 | 0.00 | 0.00 | 59 | 1015.6 |
| 20260505171532 | 68 | 27 | 3.5 | 7.8 | 0.00 | 0.00 | 0.00 | 58 | 1015.5 |
| 20260505164609 | 69 | 49 | 2.6 | 6.1 | 0.00 | 0.00 | 0.00 | 59 | 1015.6 |
| 20260505163035 | 67 | 32 | 2.6 | 7.0 | 0.00 | 0.00 | 0.00 | 61 | 1015.6 |
| 20260505161654 | 66 | 17 | 2.6 | 6.1 | 0.00 | 0.00 | 0.00 | 64 | 1015.6 |
| 20260505153034 | 64 | 5 | 2.6 | 5.2 | 0.00 | 0.00 | 0.00 | 68 | 1015.3 |
| 20260505151606 | 64 | 358 | 1.7 | 4.3 | 0.00 | 0.00 | 0.00 | 69 | 1015.3 |
| 20260505140107 | 52 | 229 | 0.9 | 1.7 | 0.00 | 0.00 | 0.00 | 85 | 1014.8 |
| 20260505130143 | 48 | 246 | 0.0 | 3.5 | 0.00 | 0.00 | 0.00 | 85 | 1014.1 |
| 20260505123109 | 49 | 191 | 1.7 | 4.3 | 0.00 | 0.00 | 0.00 | 83 | 1013.9 |
| 20260505121534 | 49 | 247 | 0.9 | 4.3 | 0.00 | 0.00 | 0.00 | 82 | 1013.7 |
| 20260505120035 | 50 | 247 | 0.0 | 1.7 | 0.00 | 0.00 | 0.00 | 82 | 1013.7 |
| 20260505113029 | 51 | 247 | 1.7 | 3.5 | 0.00 | 0.00 | 0.00 | 81 | 1013.6 |
| 20260505111607 | 51 | 239 | 0.9 | 3.5 | 0.00 | 0.00 | 0.00 | 81 | 1013.5 |
| 20260505100037 | 52 | 237 | 0.0 | 2.6 | 0.00 | 0.00 | 0.00 | 77 | 1013.1 |
| 20260505094536 | 54 | 247 | 1.7 | 3.5 | 0.00 | 0.00 | 0.00 | 76 | 1013.0 |
| 20260505090110 | 56 | 314 | 0.0 | 0.0 | 0.00 | 0.00 | 0.00 | 72 | 1012.7 |
| 20260505084535 | 57 | 30 | 0.9 | 2.6 | 0.00 | 0.00 | 0.00 | 71 | 1012.8 |
| 20260505083032 | 57 | 73 | 0.9 | 2.6 | 0.00 | 0.00 | 0.00 | 70 | 1012.8 |
| 20260505081535 | 57 | 53 | 0.0 | 3.5 | 0.00 | 0.00 | 0.00 | 69 | 1012.8 |
| 20260505074649 | 58 | 58 | 0.9 | 3.5 | 0.00 | 0.00 | 0.00 | 67 | 1012.7 |
| 20260505073030 | 59 | 354 | 1.7 | 3.5 | 0.00 | 0.00 | 0.00 | 66 | 1012.6 |
| 20260505071532 | 59 | 340 | 2.6 | 4.3 | 0.00 | 0.00 | 0.00 | 64 | 1012.5 |
| 20260505064647 | 62 | 295 | 0.9 | 5.2 | 0.00 | 0.00 | 0.00 | 58 | 1012.3 |
| 20260505061643 | 63 | 286 | 1.7 | 7.0 | 0.00 | 0.00 | 0.00 | 57 | 1012.3 |
| 20260505060035 | 63 | 298 | 4.3 | 9.6 | 0.00 | 0.00 | 0.00 | 56 | 1012.2 |
| 20260505054531 | 63 | 298 | 2.6 | 12.2 | 0.00 | 0.00 | 0.00 | 54 | 1012.2 |
| 20260505051543 | 64 | 122 | 0.0 | 4.3 | 0.00 | 0.00 | 0.00 | 52 | 1012.0 |
| 20260505041536 | 67 | 294 | 4.3 | 13.0 | 0.00 | 0.00 | 0.00 | 45 | 1011.4 |
| 20260505040050 | 67 | 268 | 7.0 | 14.8 | 0.00 | 0.00 | 0.00 | 45 | 1011.1 |
| 20260505033033 | 68 | 284 | 7.0 | 14.8 | 0.00 | 0.00 | 0.00 | 42 | 1010.6 |
| 20260505031530 | 69 | 275 | 6.1 | 12.2 | 0.00 | 0.00 | 0.00 | 41 | 1010.4 |
| 20260505030032 | 71 | 279 | 7.0 | 16.5 | 0.00 | 0.00 | 0.00 | 39 | 1010.2 |
| 20260505024534 | 72 | 285 | 7.8 | 16.5 | 0.00 | 0.00 | 0.00 | 38 | 1010.1 |
| 20260505023032 | 73 | 278 | 8.7 | 17.4 | 0.00 | 0.00 | 0.00 | 36 | 1010.1 |
| 20260505021531 | 74 | 274 | 7.8 | 17.4 | 0.00 | 0.00 | 0.00 | 34 | 1010.0 |
| 20260505020039 | 75 | 272 | 7.8 | 15.6 | 0.00 | 0.00 | 0.00 | 33 | 1009.9 |
| 20260505014535 | 76 | 285 | 7.8 | 17.4 | 0.00 | 0.00 | 0.00 | 32 | 1009.9 |
| 20260505011535 | 78 | 279 | 10.4 | 19.1 | 0.00 | 0.00 | 0.00 | 31 | 1009.8 |
| 20260505010141 | 79 | 288 | 9.6 | 19.1 | 0.00 | 0.00 | 0.00 | 31 | 1009.8 |
| 20260505004534 | 80 | 293 | 7.8 | 16.5 | 0.00 | 0.00 | 0.00 | 30 | 1010.0 |
| 20260505003036 | 81 | 287 | 7.0 | 14.8 | 0.00 | 0.00 | 0.00 | 29 | 1010.0 |
| 20260505001535 | 81 | 279 | 8.7 | 16.5 | 0.00 | 0.00 | 0.00 | 29 | 1010.0 |
| 20260505000037 | 82 | 272 | 7.8 | 15.6 | 0.00 | 0.00 | 0.00 | 29 | 1010.0 |
| 20260504234648 | 83 | 294 | 6.1 | 13.9 | 0.00 | 0.00 | 0.00 | 31 | 1010.0 |
| 20260504233033 | 82 | 343 | 7.0 | 16.5 | 0.00 | 0.00 | 0.00 | 34 | 1010.1 |
| 20260504231530 | 82 | 12 | 7.8 | 13.9 | 0.00 | 0.00 | 0.00 | 33 | 1010.2 |
| 20260504224531 | 83 | 349 | 5.2 | 11.3 | 0.00 | 0.00 | 0.00 | 33 | 1010.5 |